Regional Weather Roundup
Issued by NWS Portland, ME

Home | Current Version | Previous Version | Text Only | Print | Product List | Glossary On
Versions: 1 2 3 4 5 6 7 8 9 10 11 12 13 14 15 16 17 18 19 20 21 22 23 24 25 26 27 28 29 30 31 32 33 34 35 36 37 38 39 40 41 42 43 44 45
000
ASUS41 KGYX 211005
RWRGYX
WEATHER ROUNDUP FOR MAINE AND NEW HAMPSHIRE
NATIONAL WEATHER SERVICE GRAY ME
600 AM EDT THU AUG 21 2014

MEZ002-005-006-010-012-015-018-020-021-024-026-027-029-211100-
MAINE

CITY           SKY/WX    TMP DP  RH WIND       PRES   REMARKS
PORTLAND       MOCLDY    54  52  93 W5        30.08R
SANFORD        MOCLDY    46  43  87 CALM      30.08S
BAR HARBOR     PTCLDY    55  55 100 CALM      30.08R
WISCASSET      PTCLDY    52  50  93 CALM      30.09R
ROCKLAND       PTCLDY    54  52  94 CALM      30.07R
FRYEBURG       FOG       51  50  96 CALM      30.10R VSB 3/4
LEWISTONAUBURN MOCLDY    52  48  87 CALM      30.09R
AUGUSTA        MOCLDY    57  54  89 CALM      30.09R
WATERVILLE     MOCLDY    55  54  94 CALM      30.05R
BANGOR         MOCLDY    58  55  90 CALM      30.09R
GREENVILLE       N/A     59  57  93 N5        30.10R
MILLINOCKET    MOCLDY    58  56  93 CALM      30.12R
HOULTON        FOG       51  50  96 CALM      30.11R VSB 1/4
PRESQUE ISLE   CLEAR     52  48  87 CALM      30.12R
FRENCHVILLE    CLEAR     55  53  93 N6        30.14R
CARIBOU        CLEAR     56  55  97 NE5       30.13R
$$

NHZ002-005-008-009-011-012-014-211100-
NEW HAMPSHIRE

CITY           SKY/WX    TMP DP  RH WIND       PRES   REMARKS
PORTSMOUTH     MOCLDY    53  52  95 W5        30.07R
ROCHESTER      MOCLDY    53  50  89 NW5       30.07R
NASHUA         CLOUDY    57  55  93 CALM      30.09R
MANCHESTER     CLOUDY    58  55  90 CALM      30.07R
CONCORD        CLOUDY    53  51  93 NE3       30.08R
LACONIA        CLOUDY    57  54  88 CALM      30.08R
PLYMOUTH       FAIR      54  54 100 CALM      30.09R FOG
BERLIN         FOG       51  51 100 CALM      30.12R VSB 1/2
WHITEFIELD     CLOUDY    53  51  93 CALM      30.09R
JAFFREY        CLOUDY    58  55  90 CALM      30.11R
LEBANON        CLOUDY    62  58  86 CALM      30.07R
MT WASHINGTON  PTCLDY    50  41  71 SE3         N/A
$$

VTZ005-007-008-211100-
VERMONT

CITY           SKY/WX    TMP DP  RH WIND       PRES   REMARKS
ST JOHNSBURY     N/A     57  55  93 MISG      30.07R
MONTPELIER     CLOUDY    61  58  90 CALM      30.11R
BURLINGTON     LGT RAIN  66  62  87 SE7       30.03R
$$

MAZ007-012-024-CTZ003-RIZ002-NYZ038-NYZ072-211100-
SOUTHERN NEW ENGLAND AND NY

CITY           SKY/WX    TMP DP  RH WIND       PRES   REMARKS
BOSTON         MOCLDY    63  60  90 NW5       30.07R
WORCESTER      CLOUDY    61  55  81 CALM      30.09R
NANTUCKET      CLOUDY    64  62  93 NE6       30.03R
PROVIDENCE     CLOUDY    61  58  90 NW6       30.07R
HARTFORD       MOCLDY    64  61  90 CALM      30.05R
ALBANY         LGT RAIN  66  62  87 SE5       30.02R
NEW YORK CITY  LGT RAIN  69  61  75 CALM      30.03R
$$

ANZ081-ANZ082-ANZ150-NHZ014-MEZ023>029-211100-
COASTAL MARINE OBSERVATIONS

STATION/POSITION TIME  TEMP    WIND        PRES    WAVE
                       AIR SEA DIR/SP/G            HT/PER
                 (UTC) (F)     (DEG/KT/KT) (MB)    (FT/S)
MATINICUS ROCK   0900          280/  5/  6 1017.6R
PORTLAND WX BUOY 0950   62 63     CALM     1018.3R   1/ 7
WELLS            0900   53 64   10/  2/  3 1017.4R
ISLE OF SHOALS   0900   61      20/  3/  3 1017.5F
JEFFREYS LEDGE   0921      67                N/A     1/ 6
CASHES LEDGE BUO 0950   65 66              1017.9R   1/ 6
$$

.............KEY..............
   WCI - WIND CHILL
   TC  - TEMPERATURE IN CELSIUS
   VSB - VISIBILITY IN MILES
   HX  - HEAT INDEX
   FAIR- INDICATES FEW OR NO CLOUDS BELOW 12,000 FT, WITH NO
         SIGNIFICANT WEATHER AND/OR OBSTRUCTIONS TO VISIBILITY.




USA.gov is the U.S. government's official web portal to all federal, state and local government web resources and services.